{"data":{"norad_id":56777,"intl_designator":"2023-078L","name":"STARLINK-5582","alt_names":[],"object_type":"PAYLOAD","status":"ACTIVE","operator":null,"country":"US","launch_date":"2023-05-31","launch_site_code":"AFWTR","launch_vehicle":null,"mission":null,"orbit_class":"UNKNOWN","rcs_meters":null,"size_class":null,"mass_kg":null,"dimensions":null,"purposes":["comms"],"wikipedia_slug":null,"has_3d_model":false,"image_url":null,"decayed_at":null,"tle_current":{"epoch":"2026-09-20T06:49:32.021760Z","epoch_age_seconds":133560,"freshness":"FRESH","line1":"1 56777U 23078L   26263.28439840  .00000410  00000+0  42178-4 0  9999","line2":"2 56777  69.9996 214.0131 0003240 269.3506  90.7281 14.98331024181826","mean_motion":14.98331024,"eccentricity":0.000324,"inclination_deg":69.9996,"raan_deg":214.0131,"arg_perigee_deg":269.3506,"mean_anomaly_deg":90.7281,"bstar":4.2178e-5,"rev_number":18182,"period_min":96.106933443567,"perigee_km":569.80086284001,"apogee_km":574.30458578137,"semimajor_km":6950.1897243107,"source":"CELESTRAK","updated_at":"2026-09-21T09:00:33.487065Z"}}}